Find Kuiper-00196

NORAD ID: 67144 Int'l Des: 2025-301 Owner: KUIP Country: US Constellation: amazon-leo operational
LEOCIRCULAR

Current View

Loading 3D Globe...

About Kuiper-00196

Kuiper-00196 (NORAD 67144) is a amazon-leo constellation satellite launched Dec 16, 2025 by KUIP of US. It operates in LEO, CIRCULAR orbit with a mass of 490.00 kg.

About Kuiper-00196

Description loading...

Upcoming Passes

Passes for default location (London). Set your location on the main map for personalized predictions.

Altitude History

Loading altitude history...

Two-Line Element Set

1 67144U 25301M 26170.91668981 -.00023468 00000-0 -29401-2 0 9990
2 67144 51.8974 296.9673 0000698 63.7630 121.9615 14.81600684 5534
Epoch: Jun 19, 2026 • Age: 5 hours

Current Status

Altitude 639.6 km
Velocity 7.54 km/s
Sub-Earth Point -44.65°S, 73.16°W
Launch Date Dec 16, 2025
Age 0.5 years
Type internet

Technical Details

Classification Payload
Mass 490.00 kg
Dry Mass 490.00 kg
Total Mass 490.00 kg
Length 1.80 m
Diameter 0.70 m
Span 5.00 m
Shape Box + 2 pan
Manufacturer KUIP
Bus Type Kuiper
Phase Status In Orbit
Owner/State KUIP/US

Most Searched